Weather History for Ruston, LA

Change the Weather History Date:

Friday, March 1, 2013

  Actual Average Record
Temperature  
Mean Temperature 42 °F -  
Max Temperature 53 °F 62 °F 83 °F (1932)
Min Temperature 31 °F 39 °F 21 °F (1968)
Degree Days  
Heating Degree Days 23    
Moisture  
Dew Point 28 °F    
Average Humidity 62    
Maximum Humidity 97    
Minimum Humidity 30    
Precipitation  
Precipitation 0.00 in - - ()
Sea Level Pressure  
Sea Level Pressure 30.20 in    
Wind  
Wind Speed 4 mph (NNW)    
Max Wind Speed 14 mph    
Max Gust Speed 22 mph    
Visibility 10 miles    
Events      
Averages and records for this station are not official NWS values.
T = Trace of Precipitation, MM = Missing Value Source: NWS Daily Summary

Daily Weather History Graph

Daily Weather History Graph

Search for Another Location

Airport:

Trip Planner

Search our weather history database for the weather conditions in past years. The results will help you decide how hot, cold, wet, or windy it might be!

Date:

Astronomy

Mar. 01, 2013 Rise Set
Actual Time 6:37 AM CST 6:08 PM CST
Civil Twilight 6:13 AM CST 6:32 PM CST
Nautical Twilight 5:44 AM CST 7:01 PM CST
Astronomical Twilight 5:16 AM CST 7:29 PM CST
Moon 10:23 PM CST (3/1) 8:41 AM CST (3/1)
Length of Visible Light 12h 19m
Length of Day
11h 30m
Waning Gibbous, 83% of the Moon is Illuminated
Mar 1
Waning Gibbous
Mar 4
Last Quarter
Mar 11
New
Mar 19
First Quarter
Mar 27
Full

Hourly Weather History & Observations

Time (CST) Temp. Windchill Dew Point Humidity Pressure Visibility Wind Dir Wind Speed Gust Speed Precip Events Conditions
12:15 AM 41.5 °F 39.6 °F 28.8 °F 60% 30.18 in 10.0 mi NW 3.5 mph - N/A   Clear
12:35 AM 39.9 °F - 29.7 °F 67% 30.18 in 10.0 mi Calm Calm - N/A   Clear
12:55 AM 38.1 °F - 30.2 °F 73% 30.18 in 10.0 mi Calm Calm - N/A   Clear
1:15 AM 36.5 °F - 31.5 °F 82% 30.18 in 10.0 mi Calm Calm - N/A   Clear
1:35 AM 34.3 °F - 32.0 °F 91% 30.18 in 10.0 mi Calm Calm - N/A   Clear
1:55 AM 34.0 °F - 32.0 °F 92% 30.17 in 10.0 mi Calm Calm - N/A   Clear
2:15 AM 35.4 °F 32.6 °F 31.1 °F 84% 30.17 in 10.0 mi NNW 3.5 mph - N/A   Clear
2:35 AM 35.6 °F 32.8 °F 30.9 °F 83% 30.17 in 10.0 mi NNW 3.5 mph - N/A   Clear
2:55 AM 36.5 °F 32.7 °F 30.6 °F 79% 30.17 in 10.0 mi NNW 4.6 mph - N/A   Clear
3:15 AM 36.5 °F 31.8 °F 30.6 °F 79% 30.17 in 10.0 mi NNW 5.8 mph - N/A   Clear
3:35 AM 36.0 °F 31.1 °F 30.7 °F 81% 30.17 in 10.0 mi NNW 5.8 mph - N/A   Clear
3:55 AM 35.8 °F 31.9 °F 30.6 °F 81% 30.17 in 10.0 mi NNW 4.6 mph - N/A   Clear
4:15 AM 35.1 °F 32.2 °F 30.7 °F 84% 30.18 in 10.0 mi North 3.5 mph - N/A   Clear
4:55 AM 34.2 °F - 30.6 °F 87% 30.19 in 10.0 mi Calm Calm - N/A   Clear
5:15 AM 34.0 °F - 30.4 °F 87% 30.19 in 10.0 mi Calm Calm - N/A   Clear
5:35 AM 33.4 °F - 30.4 °F 89% 30.19 in 10.0 mi Calm Calm - N/A   Clear
5:55 AM 32.0 °F - 31.1 °F 96% 30.19 in 10.0 mi Calm Calm - N/A   Clear
6:15 AM 31.8 °F - 31.1 °F 97% 30.20 in 10.0 mi Calm Calm - N/A   Clear
6:35 AM 32.0 °F - 30.7 °F 95% 30.20 in 10.0 mi Calm Calm - N/A   Clear
6:55 AM 32.0 °F - 30.7 °F 95% 30.21 in 10.0 mi Calm Calm - N/A   Clear
7:15 AM 32.9 °F - 30.7 °F 92% 30.23 in 10.0 mi Calm Calm - N/A   Clear
7:35 AM 34.2 °F 31.2 °F 30.7 °F 87% 30.23 in 10.0 mi NNW 3.5 mph - N/A   Clear
7:55 AM 35.4 °F 32.6 °F 30.7 °F 83% 30.24 in 10.0 mi North 3.5 mph - N/A   Clear
8:15 AM 36.7 °F 32.0 °F 30.2 °F 77% 30.26 in 10.0 mi NNW 5.8 mph - N/A   Scattered Clouds
8:35 AM 37.6 °F 34.0 °F 30.2 °F 75% 30.26 in 10.0 mi NNW 4.6 mph - N/A   Scattered Clouds
8:55 AM 39.0 °F 34.8 °F 28.4 °F 66% 30.26 in 10.0 mi NNW 5.8 mph - N/A   Clear
9:15 AM 40.5 °F 34.6 °F 28.2 °F 62% 30.25 in 10.0 mi North 9.2 mph - N/A   Scattered Clouds
9:35 AM 41.4 °F 36.2 °F 28.4 °F 60% 30.26 in 10.0 mi North 8.1 mph - N/A   Scattered Clouds
9:55 AM 41.9 °F 38.2 °F 27.3 °F 56% 30.25 in 10.0 mi North 5.8 mph - N/A   Scattered Clouds
10:15 AM 41.7 °F 38.8 °F 26.8 °F 55% 30.25 in 10.0 mi North 4.6 mph - N/A   Scattered Clouds
10:35 AM 43.5 °F 38.3 °F 27.3 °F 53% 30.25 in 10.0 mi NNW 9.2 mph - N/A   Scattered Clouds
10:55 AM 44.2 °F 41.8 °F 26.8 °F 50% 30.25 in 10.0 mi NW 4.6 mph - N/A   Scattered Clouds
11:15 AM 44.8 °F 41.6 °F 26.1 °F 48% 30.25 in 10.0 mi WNW 5.8 mph - N/A   Scattered Clouds
11:35 AM 46.0 °F 44.8 °F 25.7 °F 45% 30.24 in 10.0 mi NNW 3.5 mph - N/A   Scattered Clouds
11:55 AM 46.8 °F - 26.2 °F 45% 30.23 in 10.0 mi NNW 8.1 mph - N/A   Clear
12:15 PM 47.5 °F - 26.1 °F 43% 30.23 in 10.0 mi NNW 5.8 mph - N/A   Clear
12:35 PM 47.5 °F - 25.7 °F 43% 30.21 in 10.0 mi NW 5.8 mph - N/A   Clear
12:55 PM 49.6 °F - 26.4 °F 41% 30.21 in 10.0 mi NNW 9.2 mph - N/A   Scattered Clouds
1:15 PM 48.6 °F - 25.7 °F 41% 30.20 in 10.0 mi NW 6.9 mph - N/A   Mostly Cloudy
1:35 PM 49.8 °F - 23.4 °F 36% 30.18 in 10.0 mi NNW 10.4 mph 16.1 mph N/A   Scattered Clouds
1:55 PM 50.0 °F - 23.5 °F 36% 30.17 in 10.0 mi NNW 9.2 mph - N/A   Clear
2:15 PM 51.1 °F - 24.3 °F 35% 30.17 in 10.0 mi NNW 6.9 mph - N/A   Clear
2:35 PM 51.8 °F - 24.3 °F 34% 30.16 in 10.0 mi NW 8.1 mph 17.3 mph N/A   Clear
2:55 PM 51.4 °F - 21.7 °F 31% 30.16 in 10.0 mi North 13.8 mph 18.4 mph N/A   Clear
3:15 PM 52.0 °F - 22.1 °F 31% 30.16 in 10.0 mi NW 9.2 mph 17.3 mph N/A   Scattered Clouds
3:35 PM 53.1 °F - 23.7 °F 32% 30.16 in 10.0 mi NW 10.4 mph 16.1 mph N/A   Mostly Cloudy
3:55 PM 52.7 °F - 21.6 °F 30% 30.16 in 10.0 mi NW 8.1 mph 21.9 mph N/A   Mostly Cloudy
4:15 PM 51.8 °F - 20.8 °F 30% 30.17 in 10.0 mi NW 8.1 mph 20.7 mph N/A   Scattered Clouds
4:35 PM 50.9 °F - 20.1 °F 30% 30.17 in 10.0 mi WNW 9.2 mph 17.3 mph N/A   Mostly Cloudy
4:55 PM 50.2 °F - 21.6 °F 33% 30.17 in 10.0 mi NNW 11.5 mph 18.4 mph N/A   Scattered Clouds
5:15 PM 50.0 °F - 20.1 °F 31% 30.18 in 10.0 mi NW 8.1 mph - N/A   Clear
5:35 PM 48.9 °F - 22.1 °F 35% 30.18 in 10.0 mi NNW 4.6 mph - N/A   Clear
5:55 PM 47.7 °F - 22.5 °F 37% 30.19 in 10.0 mi WNW 3.5 mph - N/A   Clear
6:15 PM 46.4 °F 45.2 °F 23.9 °F 41% 30.19 in 10.0 mi NW 3.5 mph - N/A   Clear
6:35 PM 45.0 °F - 25.0 °F 46% 30.19 in 10.0 mi Calm Calm - N/A   Clear
6:55 PM 41.2 °F - 28.2 °F 60% 30.19 in 10.0 mi Calm Calm - N/A   Clear
7:15 PM 39.0 °F - 29.7 °F 69% 30.19 in 10.0 mi Calm Calm - N/A   Clear
7:55 PM 38.1 °F - 30.4 °F 74% 30.19 in 10.0 mi Calm Calm - N/A   Overcast
8:15 PM 39.2 °F - 32.2 °F 76% 30.19 in 10.0 mi Calm Calm - N/A   Overcast
8:35 PM 40.8 °F 36.9 °F 29.8 °F 65% 30.21 in 10.0 mi NE 5.8 mph - N/A   Overcast
8:55 PM 41.4 °F 38.4 °F 28.9 °F 61% 30.21 in 10.0 mi ENE 4.6 mph - N/A   Overcast
9:15 PM 40.8 °F 36.9 °F 28.2 °F 61% 30.22 in 10.0 mi NE 5.8 mph - N/A   Scattered Clouds
9:35 PM 40.1 °F 38.0 °F 28.0 °F 62% 30.23 in 10.0 mi ENE 3.5 mph - N/A   Mostly Cloudy
9:55 PM 39.7 °F 37.6 °F 28.2 °F 63% 30.23 in 10.0 mi NE 3.5 mph - N/A   Mostly Cloudy
10:15 PM 39.4 °F 37.2 °F 28.4 °F 65% 30.24 in 10.0 mi NNE 3.5 mph - N/A   Overcast
10:55 PM 37.8 °F - 28.9 °F 71% 30.23 in 10.0 mi Calm Calm - N/A   Scattered Clouds
11:55 PM 34.9 °F 32.0 °F 30.6 °F 84% 30.24 in 10.0 mi NNW 3.5 mph - N/A   Mostly Cloudy